Falls City, NE

12:08 AM CST on November 12, 2019 (GMT -0600)
Brenner

Weather History for KFNB - October, 2019

Change the Weather History Date:

Wednesday, October 23, 2019

  Actual Average Record
Temperature  
Mean Temperature 52 °F -  
Max Temperature 64 °F 66 °F 86 °F (2012)
Min Temperature 41 °F 43 °F 24 °F (2006)
Degree Days  
Heating Degree Days 12    
Growing Degree Days 2 (Base 50)    
Moisture  
Dew Point 40 °F    
Average Humidity 65    
Maximum Humidity 83    
Minimum Humidity 37    
Precipitation  
Precipitation 0.00 in - - ()
Sea Level Pressure  
Sea Level Pressure 29.92 in    
Wind  
Wind Speed 6 mph (NW)    
Max Wind Speed 22 mph    
Max Gust Speed 32 mph    
Visibility 10 miles    
Events Rain    
Averages and records for this station are not official NWS values.
T = Trace of Precipitation, MM = Missing Value Source: NWS Daily Summary

Daily Weather History Graph

Daily Weather History Graph

Search for Another Location

Airport or City:

Astronomy

Oct. 23, 2019 Rise Set
Actual Time 7:41 AM CDT 6:31 PM CDT
Civil Twilight 7:13 AM CDT 6:59 PM CDT
Nautical Twilight 6:41 AM CDT 7:30 PM CDT
Astronomical Twilight 6:10 AM CDT 8:02 PM CDT
Moon 2:00 AM CDT (10/23) 4:22 PM CDT (10/23)
Length of Visible Light 11h 45m
Length of Day
10h 50m
Waning Crescent, 26% of the Moon is Illuminated
Oct 23
Waning Crescent
Oct 27
New
Nov 4
First Quarter
Nov 12
Full
Nov 19
Last Quarter

Hourly Weather History & Observations

Time (CDT) Temp. Windchill Dew Point Humidity Pressure Visibility Wind Dir Wind Speed Gust Speed Precip Events Conditions
12:53 AM 41.0 °F - 35.1 °F 79% 29.88 in 10.0 mi Calm Calm - N/A   Scattered Clouds
1:53 AM 42.1 °F - 37.0 °F 82% 29.87 in 10.0 mi Calm Calm - N/A   Mostly Cloudy
2:53 AM 44.1 °F - 37.9 °F 79% 29.86 in 10.0 mi Calm Calm - N/A   Mostly Cloudy
3:53 AM 45.0 °F 43.5 °F 37.0 °F 74% 29.86 in 10.0 mi SSE 3.5 mph - N/A   Overcast
4:53 AM 45.0 °F 42.6 °F 37.9 °F 76% 29.83 in 10.0 mi ESE 4.6 mph - N/A   Scattered Clouds
5:53 AM 46.9 °F - 37.0 °F 68% 29.81 in 10.0 mi SSE 9.2 mph - N/A   Overcast
6:53 AM 48.0 °F - 39.0 °F 71% 29.84 in 10.0 mi Calm Calm - 0.00 in Rain Light Rain
7:53 AM 45.0 °F 43.5 °F 39.9 °F 82% 29.83 in 10.0 mi SE 3.5 mph - 0.00 in   Mostly Cloudy
8:53 AM 50.0 °F - 39.0 °F 66% 29.83 in 10.0 mi South 8.1 mph - N/A   Clear
9:53 AM 55.9 °F - 39.0 °F 53% 29.83 in 10.0 mi SSW 11.5 mph - N/A   Clear
10:53 AM 62.1 °F - 37.9 °F 41% 29.80 in 10.0 mi SSW 15.0 mph 21.9 mph N/A   Clear
11:53 AM 64.0 °F - 37.0 °F 37% 29.81 in 10.0 mi SW 18.4 mph 31.1 mph N/A   Clear
12:53 PM 63.0 °F - 39.0 °F 41% 29.80 in 10.0 mi WSW 17.3 mph - N/A   Clear
1:53 PM 64.9 °F - 45.0 °F 48% 29.81 in 10.0 mi West 18.4 mph 27.6 mph N/A   Clear
2:53 PM 62.1 °F - 44.1 °F 52% 29.85 in 10.0 mi WNW 20.7 mph 32.2 mph N/A   Clear
3:53 PM 62.1 °F - 43.0 °F 50% 29.86 in 10.0 mi NW 21.9 mph 29.9 mph N/A   Clear
4:53 PM 62.1 °F - 41.0 °F 46% 29.92 in 10.0 mi NNW 15.0 mph 27.6 mph N/A   Clear
5:53 PM 57.9 °F - 42.1 °F 56% 29.97 in 10.0 mi North 10.4 mph 18.4 mph N/A   Clear
6:53 PM 53.1 °F - 42.1 °F 66% 30.00 in 10.0 mi North 4.6 mph - N/A   Clear
7:53 PM 50.0 °F - 42.1 °F 74% 30.05 in 10.0 mi North 4.6 mph - N/A   Clear
8:53 PM 48.0 °F - 41.0 °F 77% 30.09 in 10.0 mi North 5.8 mph - N/A   Clear
9:53 PM 46.9 °F - 41.0 °F 80% 30.14 in 10.0 mi North 5.8 mph - N/A   Clear
10:53 PM 46.0 °F 43.1 °F 41.0 °F 83% 30.22 in 10.0 mi North 5.8 mph - N/A   Mostly Cloudy
11:53 PM 45.0 °F 41.2 °F 39.0 °F 80% 30.22 in 10.0 mi North 6.9 mph - N/A   Mostly Cloudy